TimeCET,TemperatureF,Dew PointF,Humidity,Sea Level PressureIn,VisibilityMPH,Wind Direction,Wind SpeedMPH,Gust SpeedMPH,PrecipitationIn,Events,Conditions,WindDirDegrees,DateUTC
12:00 AM,41.0,41.0,100,30.30,5.0,Calm,Calm,-,N/A,,Mostly Cloudy,0,2013-02-27 23:00:00
12:30 AM,41.0,41.0,100,30.30,5.0,Calm,Calm,-,N/A,,Mostly Cloudy,0,2013-02-27 23:30:00
1:00 AM,41.0,41.0,100,30.30,4.3,Variable,3.5,-,N/A,,Mostly Cloudy,0,2013-02-28 00:00:00
1:30 AM,39.2,39.2,100,30.30,4.3,Variable,1.2,-,N/A,,Mostly Cloudy,0,2013-02-28 00:30:00
2:00 AM,39.2,39.2,100,30.30,3.7,Variable,1.2,-,N/A,,Mostly Cloudy,0,2013-02-28 01:00:00
2:30 AM,39.2,39.2,100,30.30,3.7,Variable,1.2,-,N/A,,Mostly Cloudy,0,2013-02-28 01:30:00
3:00 AM,39.2,39.2,100,30.30,3.1,Variable,1.2,-,N/A,,Mostly Cloudy,0,2013-02-28 02:00:00
3:30 AM,39.2,39.2,100,30.30,3.1,Variable,2.3,-,N/A,,Mostly Cloudy,0,2013-02-28 02:30:00
4:00 AM,37.4,37.4,100,30.30,2.5,Variable,2.3,-,N/A,,Mostly Cloudy,0,2013-02-28 03:00:00
4:30 AM,37.4,37.4,100,30.30,2.5,Variable,1.2,-,N/A,,Mostly Cloudy,0,2013-02-28 03:30:00
5:00 AM,37.4,37.4,100,30.30,1.9,Calm,Calm,-,N/A,Fog,Patches of Fog,0,2013-02-28 04:00:00
5:30 AM,37.4,37.4,100,30.30,2.5,Variable,2.3,-,N/A,,Mostly Cloudy,0,2013-02-28 04:30:00
6:00 AM,37.4,37.4,100,30.30,1.9,Calm,Calm,-,N/A,,Mist,0,2013-02-28 05:00:00
6:30 AM,35.6,35.6,100,30.30,1.9,Calm,Calm,-,N/A,Fog,Patches of Fog,0,2013-02-28 05:30:00
7:00 AM,35.6,35.6,100,30.30,3.1,Variable,1.2,-,N/A,Fog,Patches of Fog,0,2013-02-28 06:00:00
7:30 AM,35.6,35.6,100,30.33,3.1,Variable,2.3,-,N/A,Fog,Patches of Fog,0,2013-02-28 06:30:00
8:00 AM,39.2,39.2,100,30.33,3.1,Variable,2.3,-,N/A,,Partly Cloudy,0,2013-02-28 07:00:00
8:30 AM,41.0,33.8,76,30.33,4.3,South,4.6,-,N/A,,Partly Cloudy,170,2013-02-28 07:30:00
9:00 AM,42.8,35.6,76,30.33,5.0,SSE,4.6,-,N/A,,Unknown,160,2013-02-28 08:00:00
9:30 AM,42.8,35.6,76,30.33,6.2,SSE,4.6,-,N/A,,Partly Cloudy,160,2013-02-28 08:30:00
10:00 AM,44.6,32.0,61,30.33,6.2,SSE,5.8,-,N/A,,Partly Cloudy,150,2013-02-28 09:00:00
10:30 AM,44.6,26.6,49,30.33,6.2,Variable,3.5,-,N/A,,Partly Cloudy,0,2013-02-28 09:30:00
11:00 AM,46.4,28.4,50,30.33,6.2,Variable,3.5,-,N/A,,Partly Cloudy,0,2013-02-28 10:00:00
11:30 AM,46.4,30.2,53,30.33,6.2,Variable,2.3,-,N/A,,Partly Cloudy,0,2013-02-28 10:30:00
12:00 PM,48.2,28.4,46,30.33,6.2,SE,5.8,-,N/A,,Partly Cloudy,130,2013-02-28 11:00:00
12:30 PM,48.2,28.4,46,30.30,6.2,SE,5.8,-,N/A,,Partly Cloudy,130,2013-02-28 11:30:00
1:00 PM,48.2,28.4,46,30.30,6.2,Variable,3.5,-,N/A,,Partly Cloudy,0,2013-02-28 12:00:00
1:30 PM,50.0,32.0,50,30.27,-9999.0,South,5.8,-,N/A,,Clear,190,2013-02-28 12:30:00
2:00 PM,50.0,30.2,47,30.27,6.2,West,6.9,-,N/A,,Scattered Clouds,260,2013-02-28 13:00:00
2:30 PM,50.0,30.2,47,30.27,6.2,SSW,8.1,-,N/A,,Partly Cloudy,210,2013-02-28 13:30:00
3:00 PM,50.0,30.2,47,30.27,6.2,SSW,8.1,-,N/A,,Partly Cloudy,210,2013-02-28 14:00:00
3:30 PM,50.0,30.2,47,30.24,6.2,SW,5.8,-,N/A,,Partly Cloudy,220,2013-02-28 14:30:00
4:00 PM,50.0,30.2,47,30.24,-9999.0,SW,8.1,-,N/A,,Clear,220,2013-02-28 15:00:00
4:30 PM,48.2,30.2,50,30.24,-9999.0,SW,6.9,-,N/A,,Clear,230,2013-02-28 15:30:00
5:00 PM,48.2,32.0,54,30.24,-9999.0,SW,6.9,-,N/A,,Clear,220,2013-02-28 16:00:00
5:30 PM,46.4,33.8,62,30.24,-9999.0,South,5.8,-,N/A,,Clear,190,2013-02-28 16:30:00
6:00 PM,44.6,35.6,71,30.24,-9999.0,SSW,4.6,-,N/A,,Clear,210,2013-02-28 17:00:00
6:30 PM,42.8,37.4,81,30.24,-9999.0,Variable,3.5,-,N/A,,Clear,0,2013-02-28 17:30:00
7:00 PM,42.8,35.6,76,30.21,-9999.0,Calm,Calm,-,N/A,,Clear,0,2013-02-28 18:00:00
7:30 PM,39.2,33.8,81,30.21,6.2,Variable,1.2,-,N/A,,Scattered Clouds,0,2013-02-28 18:30:00
8:00 PM,42.8,39.2,87,30.21,5.0,South,4.6,-,N/A,,Mostly Cloudy,180,2013-02-28 19:00:00
8:30 PM,41.0,41.0,100,30.21,4.3,SSW,5.8,-,N/A,,Mostly Cloudy,200,2013-02-28 19:30:00
9:00 PM,39.2,39.2,100,30.21,3.7,Variable,3.5,-,N/A,,Mostly Cloudy,0,2013-02-28 20:00:00
9:30 PM,39.2,39.2,100,30.21,3.1,Variable,3.5,-,N/A,,Mist,0,2013-02-28 20:30:00
10:00 PM,37.4,37.4,100,30.21,1.9,Variable,3.5,-,N/A,Fog,Patches of Fog,0,2013-02-28 21:00:00
10:30 PM,35.6,35.6,100,30.18,0.9,SE,4.6,-,N/A,Fog,Patches of Fog,140,2013-02-28 21:30:00
11:00 PM,33.8,33.8,100,30.18,0.9,Variable,3.5,-,N/A,Fog,Patches of Fog,0,2013-02-28 22:00:00
11:30 PM,32.0,32.0,100,30.18,0.6,Variable,3.5,-,N/A,Fog,Patches of Fog,0,2013-02-28 22:30:00